| time (UTC) | temp C | wind direction | speed KPH | gust KPH | rain 1hr cm | rain 24hr cm | rain mn cm | humidity % | barometer mb |
| 20260505221531 | 25 | 302 | 8.0 | 17.7 | 0.00 | 0.00 | 0.00 | 46 | 1014.4 |
| 20260505220033 | 25 | 292 | 8.0 | 17.7 | 0.00 | 0.00 | 0.00 | 46 | 1014.5 |
| 20260505210031 | 24 | 304 | 6.4 | 17.7 | 0.00 | 0.00 | 0.00 | 47 | 1015.0 |
| 20260505204531 | 23 | 305 | 8.0 | 16.1 | 0.00 | 0.00 | 0.00 | 47 | 1015.1 |
| 20260505203029 | 23 | 297 | 6.4 | 14.5 | 0.00 | 0.00 | 0.00 | 47 | 1015.1 |
| 20260505201530 | 23 | 306 | 8.0 | 16.1 | 0.00 | 0.00 | 0.00 | 48 | 1015.2 |
| 20260505200108 | 23 | 301 | 8.0 | 16.1 | 0.00 | 0.00 | 0.00 | 49 | 1015.3 |
| 20260505194605 | 22 | 312 | 8.0 | 17.7 | 0.00 | 0.00 | 0.00 | 50 | 1015.4 |
| 20260505190035 | 20 | 284 | 6.4 | 14.5 | 0.00 | 0.00 | 0.00 | 56 | 1015.5 |
| 20260505184646 | 20 | 281 | 8.0 | 17.7 | 0.00 | 0.00 | 0.00 | 57 | 1015.6 |
| 20260505183032 | 20 | 288 | 8.0 | 19.3 | 0.00 | 0.00 | 0.00 | 58 | 1015.6 |
| 20260505181531 | 19 | 300 | 8.0 | 16.1 | 0.00 | 0.00 | 0.00 | 59 | 1015.6 |
| 20260505174530 | 19 | 307 | 6.4 | 14.5 | 0.00 | 0.00 | 0.00 | 57 | 1015.7 |
| 20260505173029 | 20 | 17 | 4.8 | 11.3 | 0.00 | 0.00 | 0.00 | 56 | 1015.6 |
| 20260505171528 | 20 | 33 | 1.6 | 8.0 | 0.00 | 0.00 | 0.00 | 56 | 1015.6 |
| 20260505163030 | 20 | 299 | 3.2 | 8.0 | 0.00 | 0.00 | 0.00 | 58 | 1015.7 |
| 20260505161530 | 19 | 356 | 3.2 | 11.3 | 0.00 | 0.00 | 0.00 | 58 | 1015.7 |
| 20260505153108 | 18 | 29 | 0.0 | 6.4 | 0.00 | 0.00 | 0.00 | 64 | 1015.3 |
| 20260505151532 | 17 | 108 | 0.0 | 6.4 | 0.00 | 0.00 | 0.00 | 70 | 1015.3 |
| 20260505124604 | 11 | 92 | 4.8 | 9.7 | 0.00 | 0.00 | 0.00 | 85 | 1013.7 |
| 20260505121608 | 11 | 104 | 4.8 | 9.7 | 0.00 | 0.00 | 0.00 | 83 | 1013.5 |
| 20260505120031 | 11 | 95 | 8.0 | 11.3 | 0.00 | 0.00 | 0.00 | 83 | 1013.5 |
| 20260505114529 | 11 | 90 | 6.4 | 9.7 | 0.00 | 0.00 | 0.00 | 83 | 1013.4 |
| 20260505111604 | 11 | 55 | 3.2 | 4.8 | 0.00 | 0.00 | 0.00 | 80 | 1013.2 |
| 20260505101530 | 12 | 43 | 1.6 | 4.8 | 0.00 | 0.00 | 0.00 | 78 | 1012.8 |
| 20260505093034 | 13 | 91 | 1.6 | 6.4 | 0.00 | 0.00 | 0.00 | 74 | 1012.7 |
| 20260505091529 | 13 | 342 | 0.0 | 3.2 | 0.00 | 0.00 | 0.00 | 72 | 1012.5 |
| 20260505090030 | 14 | 268 | 1.6 | 4.8 | 0.00 | 0.00 | 0.00 | 71 | 1012.4 |
| 20260505084531 | 15 | 307 | 3.2 | 6.4 | 0.00 | 0.00 | 0.00 | 70 | 1012.5 |
| 20260505083029 | 15 | 279 | 3.2 | 8.0 | 0.00 | 0.00 | 0.00 | 70 | 1012.5 |
| 20260505081531 | 15 | 252 | 3.2 | 8.0 | 0.00 | 0.00 | 0.00 | 70 | 1012.5 |
| 20260505080031 | 14 | 288 | 4.8 | 12.9 | 0.00 | 0.00 | 0.00 | 72 | 1012.5 |
| 20260505074530 | 14 | 280 | 0.0 | 6.4 | 0.00 | 0.00 | 0.00 | 71 | 1012.4 |
| 20260505073031 | 14 | 302 | 0.0 | 3.2 | 0.00 | 0.00 | 0.00 | 70 | 1012.3 |
| 20260505071532 | 15 | 75 | 1.6 | 4.8 | 0.00 | 0.00 | 0.00 | 67 | 1012.3 |
| 20260505070107 | 15 | 360 | 1.6 | 4.8 | 0.00 | 0.00 | 0.00 | 65 | 1012.1 |
| 20260505064534 | 16 | 81 | 1.6 | 8.0 | 0.00 | 0.00 | 0.00 | 63 | 1012.1 |
| 20260505063029 | 16 | 251 | 3.2 | 8.0 | 0.00 | 0.00 | 0.00 | 60 | 1012.1 |
| 20260505060029 | 17 | 222 | 4.8 | 14.5 | 0.00 | 0.00 | 0.00 | 56 | 1012.0 |
| 20260505054531 | 18 | 265 | 4.8 | 11.3 | 0.00 | 0.00 | 0.00 | 55 | 1011.8 |
| 20260505053106 | 18 | 239 | 6.4 | 12.9 | 0.00 | 0.00 | 0.00 | 54 | 1011.8 |
| 20260505051645 | 18 | 243 | 6.4 | 16.1 | 0.00 | 0.00 | 0.00 | 53 | 1011.7 |
| 20260505041535 | 20 | 232 | 8.0 | 20.9 | 0.00 | 0.00 | 0.00 | 49 | 1011.2 |
| 20260505040042 | 20 | 238 | 9.7 | 17.7 | 0.00 | 0.00 | 0.00 | 49 | 1011.0 |
| 20260505034528 | 20 | 239 | 9.7 | 19.3 | 0.00 | 0.00 | 0.00 | 49 | 1010.7 |
| 20260505033107 | 20 | 242 | 6.4 | 17.7 | 0.00 | 0.00 | 0.00 | 47 | 1010.6 |
| 20260505031530 | 21 | 246 | 6.4 | 17.7 | 0.00 | 0.00 | 0.00 | 46 | 1010.4 |
| 20260505030038 | 21 | 247 | 9.7 | 27.4 | 0.00 | 0.00 | 0.00 | 44 | 1010.2 |
| 20260505024531 | 22 | 242 | 8.0 | 19.3 | 0.00 | 0.00 | 0.00 | 43 | 1010.1 |
| 20260505021532 | 23 | 241 | 12.9 | 25.7 | 0.00 | 0.00 | 0.00 | 39 | 1010.0 |
| 20260505020033 | 24 | 243 | 14.5 | 29.0 | 0.00 | 0.00 | 0.00 | 37 | 1009.9 |
| 20260505014645 | 25 | 245 | 14.5 | 29.0 | 0.00 | 0.00 | 0.00 | 36 | 1009.9 |
| 20260505013109 | 25 | 235 | 19.3 | 37.0 | 0.00 | 0.00 | 0.00 | 35 | 1010.0 |
| 20260505011533 | 26 | 245 | 14.5 | 29.0 | 0.00 | 0.00 | 0.00 | 36 | 1009.9 |
| 20260505010028 | 26 | 241 | 14.5 | 27.4 | 0.00 | 0.00 | 0.00 | 38 | 1009.9 |
| 20260505004530 | 26 | 280 | 9.7 | 24.1 | 0.00 | 0.00 | 0.00 | 41 | 1010.0 |
| 20260505003031 | 26 | 308 | 11.3 | 25.7 | 0.00 | 0.00 | 0.00 | 40 | 1009.9 |
| 20260505001533 | 27 | 314 | 12.9 | 24.1 | 0.00 | 0.00 | 0.00 | 40 | 1009.9 |
| 20260505000030 | 27 | 307 | 11.3 | 24.1 | 0.00 | 0.00 | 0.00 | 39 | 1010.0 |
| 20260504234531 | 27 | 300 | 11.3 | 22.5 | 0.00 | 0.00 | 0.00 | 39 | 1010.0 |
| 20260504233031 | 27 | 316 | 11.3 | 22.5 | 0.00 | 0.00 | 0.00 | 38 | 1010.0 |
| 20260504230032 | 27 | 314 | 9.7 | 22.5 | 0.00 | 0.00 | 0.00 | 37 | 1010.3 |
| 20260504224531 | 27 | 306 | 11.3 | 22.5 | 0.00 | 0.00 | 0.00 | 37 | 1010.5 |
| 20260504223032 | 27 | 301 | 11.3 | 22.5 | 0.00 | 0.00 | 0.00 | 36 | 1010.6 |